Temperature
23 22 22 21 20 20 23 25 25 25 25 25 24 23 23 22 21 20 20 20 20 20 20 19 19 19 19 19 19 19 19 19 18 18 18 19 19 18 18 19 19 19 18 18 18 18 18 18 18
23 22 22 21 20 21 24 25 25 25 25 25 24 23 22 21 20 20 20 20 20 20 19 19 19 19 19 19 19 19 19 18 18 18 18 18 18 18 18 18 19 19 19 18 18 18 18 18 18
23 22 22 20 21 22 24 26 26 26 26 25 24 23 22 21 20 20 20 20 20 20 19 19 19 19 19 19 19 18 18 18 18 18 18 18 18 18 18 18 19 19 19 19 18 18 18 18 18
23 22 22 21 23 25 25 26 26 26 26 25 24 23 22 21 21 20 20 20 20 20 19 19 19 19 19 19 18 18 18 18 18 18 18 18 18 18 18 18 19 18 18 18 18 18 18 18 18
23 22 21 22 24 26 26 27 27 26 25 24 23 22 21 21 21 20 20 20 20 19 19 19 19 19 19 19 18 18 18 18 18 18 18 18 18 18 18 18 18 18 18 18 18 18 18 18 18
23 22 21 22 25 27 27 27 26 25 24 24 23 22 21 21 21 20 20 20 20 20 19 19 19 19 19 18 18 18 18 18 18 18 18 18 18 18 18 18 18 18 18 18 18 18 18 18 18
23 21 22 24 25 26 27 27 26 25 25 24 23 21 21 20 21 20 20 20 20 20 19 19 19 18 18 18 18 18 18 18 18 18 18 18 18 18 18 18 18 18 18 18 18 18 18 18 18
25 22 24 24 25 26 28 27 27 26 25 24 24 22 21 20 21 20 20 20 20 19 19 19 18 18 18 18 18 18 18 18 18 18 18 18 18 18 18 18 18 18 18 18 18 18 18 18 18
25 23 23 25 26 26 27 27 26 26 25 24 24 23 22 21 21 20 20 20 19 19 19 19 19 18 18 18 18 18 18 18 18 18 18 18 18 18 18 18 18 18 18 18 18 18 18 18 18
25 23 25 27 26 26 27 27 27 26 25 24 23 22 21 21 21 20 20 20 19 19 19 19 19 18 18 18 18 18 18 18 18 18 18 18 18 18 18 18 18 18 18 18 18 18 18 18 18
26 25 27 28 29 28 27 27 27 25 24 24 23 22 21 21 21 20 20 20 20 19 19 19 19 18 18 18 18 18 18 18 18 18 18 18 18 18 18 18 18 18 18 18 18 18 18 18 18
27 28 29 29 29 28 28 27 27 25 24 24 24 23 22 21 21 20 20 20 20 19 19 19 19 18 18 18 18 18 18 18 18 18 18 18 18 18 18 18 18 18 18 18 18 18 18 18 18
28 28 30 29 29 29 28 27 26 26 25 24 23 23 22 21 21 21 20 20 20 19 19 19 19 19 18 18 18 18 18 18 18 18 18 18 18 18 18 18 18 18 18 18 18 18 18 18 18
28 28 29 29 28 28 27 26 26 25 24 24 23 23 22 22 21 21 20 20 19 19 19 19 19 19 18 18 18 18 18 18 18 18 18 18 18 18 18 18 18 18 18 18 18 18 18 18 18
29 28 27 27 28 27 27 26 25 25 24 24 23 23 22 22 21 21 21 20 20 19 19 19 19 19 18 18 18 18 18 18 18 18 18 18 18 18 18 18 18 18 18 18 18 18 18 18 17
27 26 26 27 27 27 26 24 25 25 24 24 23 22 22 22 22 21 21 20 20 20 19 19 19 19 18 18 18 18 18 18 18 18 18 18 18 18 18 18 18 18 18 18 18 18 18 18 18
25 25 25 26 27 27 25 24 25 25 25 24 23 23 22 22 22 21 21 21 20 20 20 19 19 19 19 18 18 18 18 18 18 18 18 18 18 18 18 18 18 18 18 18 18 18 18 18 18
24 25 26 26 27 27 25 24 25 25 25 24 23 23 22 22 22 22 21 21 20 20 20 19 19 19 19 18 18 18 18 18 18 18 18 18 18 18 18 18 18 18 18 18 18 18 18 18 18
26 26 25 27 27 26 25 25 25 25 25 24 23 23 22 22 22 22 21 21 21 20 20 19 19 19 19 19 18 18 18 18 18 18 18 18 18 18 18 18 18 18 18 18 18 18 18 17 17
27 26 26 26 27 26 25 25 25 25 24 24 24 23 23 22 22 21 21 21 21 20 20 20 19 19 19 19 19 18 18 18 18 18 18 18 18 18 18 18 18 18 18 18 18 18 18 17 17
27 26 26 26 26 26 25 24 24 24 24 24 24 23 23 22 22 21 21 21 21 20 20 20 20 19 19 19 19 18 18 18 18 18 18 18 18 18 18 18 18 18 18 18 18 18 18 18 18
26 27 27 27 25 23 24 23 23 23 23 23 23 23 23 23 22 22 21 21 21 21 20 20 20 19 19 19 19 19 18 18 18 18 18 18 18 18 18 18 18 18 18 18 18 18 18 18 18
27 28 27 27 24 23 23 22 22 22 22 23 23 23 23 23 22 22 22 21 21 21 21 20 20 20 19 19 19 19 19 19 18 18 18 18 18 18 18 18 18 18 18 18 18 18 18 18 18
28 27 25 23 22 22 23 22 22 22 22 23 23 23 23 23 22 22 22 21 21 21 21 20 20 20 19 19 19 19 19 19 18 18 18 18 18 18 18 18 18 18 18 18 18 18 18 18 17
27 24 23 23 21 22 23 23 22 23 24 24 23 24 23 23 23 22 21 21 21 21 21 20 20 20 19 19 19 19 19 19 19 19 18 18 18 18 18 18 18 18 18 18 18 18 17 17 17
26 24 23 23 22 22 22 22 23 24 24 25 24 24 23 23 22 22 22 22 22 21 21 20 20 20 20 19 19 19 19 19 19 18 18 18 18 18 18 18 18 18 18 18 18 18 17 17 17
26 24 23 21 22 21 21 22 23 24 24 24 24 23 23 23 23 22 22 22 22 21 21 21 20 20 20 20 19 19 19 19 19 18 18 18 18 18 18 18 18 18 18 17 17 17 17 17 17
26 25 21 21 21 22 22 22 22 23 23 23 23 23 23 23 23 22 22 22 22 22 21 21 21 20 20 20 20 19 19 19 19 18 18 18 18 18 18 18 18 18 18 17 17 17 17 17 17
25 24 21 20 20 21 21 21 23 22 22 22 22 23 23 23 23 23 22 22 22 22 22 21 21 20 20 20 20 19 19 19 18 18 18 18 18 18 18 18 18 18 18 17 17 17 17 17 17
26 24 22 21 21 20 20 21 23 22 22 22 22 23 24 23 23 22 22 22 21 21 21 21 21 20 20 20 19 19 19 19 19 18 18 18 18 18 18 18 18 18 18 17 17 17 17 17 17
Wind_Speed
11 9 4 1 2 3 2 3 6 7 5 7 10 11 9 6 4 5 3 9 10 9 9 12 13 13 13 14 14 14 14 14 14 14 14 15 14 14 14 14 15 16 17 18 18 18 18 17 17
9 6 2 1 3 3 2 5 8 8 10 11 11 11 8 7 7 8 5 8 11 10 10 12 13 13 13 14 14 14 14 14 14 14 13 14 14 13 14 15 15 16 17 17 17 17 17 17 16
7 4 2 2 1 4 4 5 10 11 12 9 7 7 5 6 7 5 7 11 10 9 10 12 13 13 13 13 14 14 13 13 13 13 12 13 13 13 14 15 15 16 16 17 16 17 16 16 15
3 2 2 3 2 2 6 6 11 12 10 9 10 7 5 5 5 9 13 13 11 8 10 12 13 13 12 12 13 13 12 12 12 12 12 12 13 13 14 15 15 15 16 16 16 16 16 15 14
2 3 3 2 2 3 6 7 9 11 7 10 12 8 5 4 14 15 14 13 12 8 9 12 13 12 11 12 12 12 12 11 12 12 12 12 13 13 13 14 15 15 15 16 16 15 14 13 13
2 3 3 1 2 3 5 8 12 14 13 12 12 9 4 8 15 14 14 12 11 10 8 10 12 11 11 11 11 11 11 11 11 12 12 12 13 13 13 13 14 15 15 15 15 14 14 13 12
3 2 2 2 2 4 5 7 11 13 12 8 10 7 5 8 12 14 13 12 10 10 8 7 9 9 9 10 11 11 10 10 11 11 12 13 13 12 13 13 13 14 14 14 13 13 13 12 11
4 3 1 2 4 3 5 6 9 12 10 11 9 9 8 10 12 13 12 11 10 8 7 6 6 6 7 8 9 9 9 10 10 12 12 12 12 12 12 12 13 13 13 13 13 12 12 11 10
3 3 2 5 6 4 7 10 7 7 10 7 5 9 14 16 15 13 11 8 8 8 5 5 5 5 5 6 7 7 8 9 10 11 11 10 9 9 9 11 12 12 12 11 11 11 10 9 8
5 4 7 6 7 8 9 11 8 7 10 10 12 13 17 16 14 13 12 10 8 7 6 4 4 4 5 5 5 5 6 7 8 8 8 7 7 8 8 9 10 11 11 10 10 9 8 6 5
5 6 4 4 7 9 8 8 7 11 9 14 18 18 17 15 13 12 11 11 9 8 7 5 4 4 4 3 5 4 5 6 6 7 8 7 6 6 6 5 6 6 7 6 7 6 4 3 3
3 2 4 5 6 9 9 7 7 9 11 16 19 19 15 14 12 11 11 9 8 8 7 6 5 4 4 4 4 4 4 4 4 7 8 7 4 4 4 4 4 4 4 4 4 3 3 3 3
1 1 2 4 6 9 10 10 9 9 14 16 18 17 15 14 11 10 10 9 8 7 6 6 6 5 4 3 2 3 3 4 5 6 8 8 6 5 4 4 4 3 4 4 4 3 3 3 3
2 1 2 4 6 6 11 9 8 11 17 17 17 14 13 13 12 10 9 8 8 7 6 7 7 5 4 4 3 3 4 5 5 5 8 9 8 6 5 4 3 3 4 4 4 4 4 3 3
1 2 2 2 5 4 9 5 7 14 16 16 15 14 13 11 12 12 11 9 9 8 8 7 7 6 5 4 3 4 4 5 4 5 8 8 8 7 6 5 3 3 4 4 4 4 4 3 3
4 3 1 3 3 5 9 5 5 12 15 15 15 14 13 11 12 11 12 10 10 9 8 7 7 6 5 4 3 3 4 4 5 6 7 8 8 8 6 4 4 4 4 4 4 3 4 3 3
4 1 3 3 2 3 5 6 8 10 13 14 14 13 12 11 10 10 12 12 11 10 9 7 6 6 5 4 3 3 4 4 5 6 6 6 7 7 6 4 3 4 4 3 3 3 4 3 3
4 2 3 3 3 4 4 6 10 11 12 13 13 12 12 13 12 12 11 12 11 10 9 7 6 6 5 4 3 3 3 3 3 4 5 6 6 6 5 4 3 4 4 3 3 3 3 3 3
5 3 3 4 3 3 5 6 11 12 11 11 12 12 12 12 11 11 12 12 11 9 8 8 7 6 5 4 3 3 3 2 2 3 5 6 5 5 5 4 3 3 3 3 4 3 3 2 2
4 2 3 4 2 1 3 4 9 11 13 14 14 13 13 10 9 11 11 12 11 11 9 9 8 7 6 4 3 3 3 3 3 2 3 5 5 5 5 4 3 3 3 3 3 3 3 1 2
5 4 4 2 3 3 3 2 2 4 6 9 10 12 13 14 14 13 12 11 11 11 11 10 9 8 7 5 4 3 3 2 2 1 2 3 5 5 4 4 4 3 4 3 4 4 4 3 1
5 6 5 3 2 1 2 2 4 4 5 8 10 10 12 13 13 13 13 12 13 12 11 10 9 8 7 6 5 6 5 4 3 3 3 3 4 4 4 4 4 3 3 3 4 4 3 4 2
7 6 3 2 3 1 1 2 5 3 5 9 11 13 13 14 15 15 15 14 13 12 11 10 9 8 7 7 7 6 4 3 2 2 3 3 2 3 4 4 4 3 3 3 3 2 3 3 3
3 2 4 5 4 1 4 3 5 5 9 9 10 12 12 13 14 13 12 11 11 11 10 10 10 8 7 7 7 7 6 5 4 4 4 3 2 2 2 3 3 3 2 3 3 3 3 3 3
2 4 3 4 3 4 3 3 7 7 8 11 12 12 10 11 12 13 12 12 12 13 12 11 11 9 8 8 7 7 7 6 6 5 5 4 3 2 3 3 3 2 3 3 3 3 2 3 3
3 8 7 5 5 4 3 3 6 5 6 8 8 10 10 10 10 13 14 13 13 14 13 12 11 10 9 9 8 6 6 5 4 5 5 5 4 4 4 3 3 3 3 3 3 2 2 2 2
3 3 8 7 3 0 4 3 5 1 3 5 6 7 10 11 11 11 11 11 12 13 12 12 12 10 10 9 8 7 6 6 5 5 4 4 4 4 4 4 4 3 3 3 3 2 2 2 3
5 6 5 5 4 1 3 3 3 4 5 5 7 8 8 8 9 9 11 12 12 12 11 11 11 11 10 9 8 7 6 5 5 5 5 4 4 4 4 4 4 4 3 3 4 2 2 3 2
0 3 5 4 6 6 3 5 5 7 6 7 8 9 10 9 10 11 10 11 10 10 10 10 10 9 9 9 8 6 6 5 5 5 5 5 4 4 4 4 4 4 4 3 3 3 3 3 3
4 3 5 4 2 4 5 5 3 4 4 4 4 6 8 9 8 9 10 10 9 9 10 10 10 9 9 8 7 7 6 6 6 6 5 5 5 4 5 5 4 4 4 4 4 4 4 4 3
Wind_Direction
168 159 153 131 46 49 83 107 102 89 68 70 81 87 84 70 96 127 150 140 136 136 137 130 126 123 121 124 125 123 123 124 126 127 128 128 130 133 135 137 138 140 143 144 143 143 143 143 141
161 157 145 68 73 76 82 113 99 104 118 106 83 84 78 73 91 115 127 137 133 133 136 133 128 124 122 123 122 120 122 123 124 126 128 131 134 135 137 139 141 142 145 146 145 146 144 144 142
174 168 130 73 105 147 138 121 115 110 113 106 90 66 68 103 111 123 140 132 125 128 135 135 130 126 126 128 126 122 122 123 123 123 127 132 134 135 137 141 143 144 146 147 148 147 146 145 144
162 112 52 70 122 179 141 136 120 109 93 87 97 75 62 92 116 130 132 126 122 126 135 133 127 126 126 128 127 123 123 125 125 123 124 131 132 134 135 139 143 146 148 148 149 149 148 147 146
101 84 49 32 108 125 138 137 122 107 100 99 99 98 80 79 116 124 127 126 125 117 122 127 121 119 124 130 130 126 123 124 124 124 125 129 131 132 134 137 142 146 148 149 151 152 151 150 149
67 70 69 73 85 101 118 121 110 103 112 111 107 108 100 121 123 129 128 126 126 124 124 127 123 121 122 128 133 131 128 126 125 127 128 130 134 133 134 137 142 146 148 151 154 155 155 154 154
125 111 168 160 111 117 131 126 120 125 126 130 127 106 119 130 134 132 128 126 125 124 125 127 125 124 128 134 133 132 131 131 129 129 128 129 132 132 132 138 143 146 150 153 156 158 156 155 157
168 127 152 159 129 136 133 122 124 128 124 133 127 129 150 153 139 129 123 119 119 119 120 121 121 122 126 137 136 130 131 135 136 133 131 131 133 133 133 137 143 149 152 156 158 158 160 159 160
143 97 183 183 158 157 125 111 111 104 114 121 110 129 145 142 134 125 119 115 121 124 126 126 123 124 124 132 137 136 132 137 139 138 135 133 133 134 137 140 146 151 156 159 160 163 165 164 162
145 157 205 193 164 155 142 129 129 108 109 106 107 118 132 136 135 132 133 136 139 144 147 138 133 131 133 130 132 143 139 141 140 140 137 134 134 138 140 143 149 153 157 160 163 165 165 162 156
164 179 192 177 160 144 135 130 121 121 130 140 139 140 141 139 138 140 143 148 153 156 154 152 146 139 135 123 135 137 136 140 143 147 145 141 138 144 143 147 148 154 161 166 169 174 180 167 148
159 210 175 164 153 139 137 131 117 132 155 151 144 145 142 139 141 145 145 150 155 155 154 151 146 139 137 130 135 142 145 152 157 162 158 148 144 138 139 139 148 155 161 159 168 170 169 156 151
140 247 143 134 132 134 125 128 124 135 141 141 138 140 142 143 145 145 145 147 148 150 150 147 140 138 134 122 134 136 148 160 165 167 166 157 147 140 139 144 154 163 160 157 157 160 153 144 151
227 207 103 121 109 115 122 126 113 142 141 141 141 144 148 148 148 143 144 144 146 148 148 149 141 138 130 122 120 142 161 167 164 163 165 159 157 154 149 145 153 170 173 168 163 157 147 145 136
5 39 25 117 118 125 108 93 138 150 145 145 147 148 149 150 149 151 157 156 152 151 147 149 145 139 134 131 134 142 158 159 156 163 159 155 156 157 156 148 149 168 169 148 136 130 131 126 120
13 42 357 281 137 147 119 164 181 157 151 153 154 154 155 156 157 157 155 152 147 145 143 148 147 143 142 138 126 125 137 140 148 157 156 154 155 153 149 143 147 158 146 134 126 120 115 112 109
20 2 273 288 217 148 135 173 183 172 158 159 160 160 160 158 159 161 159 153 150 150 149 149 142 148 153 143 128 117 120 132 149 151 152 153 152 151 145 143 150 147 131 124 135 125 125 125 120
245 266 279 242 215 160 160 186 171 182 168 165 164 162 162 165 170 166 160 155 151 150 149 150 146 150 150 136 121 105 100 113 140 146 154 151 154 152 146 142 147 141 126 122 127 130 128 133 139
210 230 247 259 220 174 188 186 181 181 174 171 168 167 169 172 169 162 160 157 152 150 148 150 150 156 150 142 139 131 132 139 140 152 161 161 158 150 143 140 142 141 140 152 146 131 131 137 130
232 251 262 294 265 159 192 198 181 183 181 177 172 171 169 165 162 164 163 161 160 160 157 155 158 161 162 161 159 154 149 154 162 154 156 162 160 161 156 146 154 155 149 150 151 140 138 160 142
256 216 222 236 358 58 95 7 173 195 180 181 176 173 170 170 170 170 168 169 166 166 167 166 164 163 164 156 138 127 103 96 104 122 150 166 163 166 161 157 159 158 158 167 177 168 160 165 183
252 236 207 189 112 252 136 200 258 209 190 190 184 181 179 177 175 173 172 173 176 175 172 166 165 166 168 162 154 149 150 158 182 177 169 171 171 168 165 160 162 157 161 173 192 181 169 156 179
226 229 170 160 138 82 31 146 267 184 203 213 196 186 183 182 179 178 178 180 179 176 174 169 164 168 169 167 165 162 164 173 163 153 153 165 178 180 176 172 170 168 173 179 180 169 168 162 173
202 59 54 56 72 7 241 173 252 215 208 208 205 196 186 179 179 178 175 173 177 175 172 170 168 172 173 169 167 168 169 168 155 157 166 177 180 185 190 177 169 171 170 178 183 184 177 179 175
107 96 39 5 10 253 242 179 238 229 204 199 197 190 181 175 175 172 173 174 177 175 174 173 172 176 177 174 174 177 179 176 175 176 179 177 180 192 206 186 175 172 177 176 175 181 192 191 186
203 145 159 190 215 267 311 230 256 239 204 188 179 171 164 170 176 176 178 174 173 173 173 174 177 180 180 179 180 180 179 179 184 183 181 186 192 200 194 180 175 177 183 184 174 186 203 205 208
178 178 167 147 165 168 293 300 313 255 178 177 163 164 173 176 174 178 178 172 170 170 174 177 179 180 182 183 180 180 180 180 181 179 179 186 194 198 189 186 183 184 185 181 177 192 201 202 215
168 160 96 117 144 225 298 287 240 229 200 181 174 180 182 175 174 180 182 176 174 171 169 172 177 181 181 182 185 188 188 185 179 172 175 181 189 192 182 187 186 190 195 188 186 194 201 201 226
1 87 106 118 145 153 211 268 233 205 195 178 179 176 172 177 178 183 185 180 174 166 168 170 177 178 179 182 184 185 184 184 177 178 188 190 184 178 177 185 187 194 199 197 192 204 197 205 228
149 152 139 146 200 157 163 256 275 194 168 149 157 161 162 168 177 180 177 170 167 171 176 177 179 178 179 177 176 182 182 182 186 191 193 188 185 187 186 187 188 198 202 200 199 211 210 208 222
Height
1505 1505 1506 1507 1509 1515 1514 1504 1498 1497 1498 1500 1499 1500 1504 1507 1512 1519 1516 1514 1514 1514 1514 1514 1513 1513 1512 1511 1511 1511 1512 1512 1512 1513 1513 1514 1514 1515 1516 1516 1518 1520 1522 1525 1528 1531 1534 1537 1540
1505 1505 1507 1508 1514 1525 1516 1501 1499 1497 1500 1500 1501 1503 1505 1509 1511 1513 1514 1515 1515 1515 1515 1515 1515 1514 1514 1513 1513 1513 1513 1513 1513 1514 1514 1514 1515 1515 1515 1516 1518 1520 1523 1526 1529 1532 1535 1538 1541
1505 1505 1507 1509 1515 1519 1512 1500 1498 1498 1499 1499 1503 1506 1508 1511 1513 1514 1515 1516 1516 1516 1516 1516 1516 1515 1515 1514 1514 1514 1514 1514 1514 1515 1514 1514 1515 1515 1515 1517 1518 1521 1523 1526 1529 1532 1535 1538 1541
1505 1507 1508 1513 1514 1505 1501 1498 1497 1499 1501 1502 1504 1509 1512 1513 1513 1515 1516 1516 1516 1517 1517 1517 1517 1516 1516 1516 1515 1515 1516 1516 1515 1515 1514 1515 1515 1515 1516 1517 1519 1521 1524 1527 1530 1533 1536 1539 1542
1505 1507 1513 1517 1509 1500 1497 1496 1497 1498 1502 1505 1505 1511 1515 1516 1515 1516 1517 1517 1517 1517 1518 1518 1518 1517 1517 1517 1517 1516 1516 1516 1516 1516 1515 1515 1515 1516 1517 1518 1520 1522 1525 1528 1531 1534 1537 1540 1543
1506 1508 1519 1521 1509 1499 1496 1496 1498 1501 1504 1506 1507 1512 1517 1517 1517 1517 1518 1518 1518 1518 1519 1519 1518 1518 1518 1517 1517 1517 1517 1517 1517 1517 1516 1516 1517 1517 1518 1520 1522 1524 1527 1529 1532 1535 1538 1540 1543
1508 1511 1517 1514 1509 1502 1498 1497 1498 1501 1504 1506 1507 1512 1518 1519 1518 1519 1519 1520 1520 1520 1520 1520 1519 1518 1518 1518 1518 1518 1517 1517 1517 1518 1518 1517 1518 1519 1520 1521 1523 1525 1528 1531 1533 1536 1538 1541 1544
1505 1510 1514 1512 1509 1504 1497 1497 1499 1500 1504 1507 1508 1511 1516 1519 1520 1520 1521 1521 1521 1521 1521 1521 1520 1519 1519 1519 1519 1518 1517 1517 1517 1518 1519 1520 1520 1521 1522 1523 1525 1527 1530 1532 1535 1537 1540 1542 1545
1504 1512 1516 1509 1506 1502 1496 1498 1502 1502 1504 1507 1508 1510 1514 1517 1520 1520 1521 1522 1522 1522 1522 1522 1521 1520 1520 1520 1520 1519 1518 1518 1519 1520 1521 1521 1522 1523 1525 1526 1527 1529 1531 1534 1536 1538 1541 1544 1546
1501 1511 1505 1496 1495 1496 1496 1497 1501 1505 1506 1509 1511 1514 1516 1518 1519 1520 1521 1521 1522 1522 1523 1522 1522 1522 1521 1521 1520 1520 1520 1520 1520 1521 1522 1523 1524 1525 1526 1528 1529 1531 1533 1535 1537 1539 1542 1544 1546
1496 1499 1494 1492 1492 1493 1496 1498 1500 1504 1508 1509 1510 1514 1516 1518 1519 1520 1521 1521 1522 1522 1523 1523 1523 1522 1522 1521 1521 1521 1521 1522 1522 1523 1524 1525 1526 1527 1528 1529 1531 1532 1533 1535 1538 1540 1543 1545 1546
1493 1492 1491 1491 1492 1494 1495 1498 1501 1502 1506 1507 1508 1512 1515 1518 1520 1521 1521 1522 1522 1523 1523 1523 1523 1523 1523 1522 1522 1523 1523 1523 1524 1525 1526 1527 1528 1529 1530 1531 1532 1533 1534 1535 1538 1541 1543 1545 1547
1492 1491 1490 1491 1492 1493 1495 1497 1500 1504 1506 1509 1510 1513 1515 1517 1519 1521 1522 1522 1523 1523 1523 1524 1524 1524 1524 1523 1523 1524 1525 1525 1526 1526 1527 1528 1529 1530 1532 1532 1534 1535 1535 1536 1539 1541 1543 1545 1547
1491 1490 1490 1491 1493 1494 1496 1499 1501 1505 1507 1509 1512 1513 1516 1517 1519 1520 1522 1522 1523 1523 1524 1524 1524 1525 1525 1525 1525 1525 1526 1526 1527 1527 1528 1530 1531 1532 1533 1534 1535 1536 1537 1538 1540 1542 1544 1546 1548
1490 1491 1492 1491 1493 1497 1498 1505 1503 1505 1507 1510 1512 1514 1516 1518 1519 1520 1521 1522 1523 1524 1524 1525 1526 1526 1526 1526 1526 1526 1527 1527 1527 1528 1530 1531 1533 1534 1535 1536 1537 1538 1539 1540 1542 1544 1546 1547 1548
1492 1498 1504 1495 1493 1496 1502 1515 1505 1506 1506 1509 1512 1514 1516 1517 1518 1519 1520 1522 1523 1524 1525 1526 1526 1527 1527 1527 1527 1528 1528 1528 1528 1529 1531 1533 1534 1535 1536 1538 1539 1540 1541 1542 1543 1545 1547 1548 1549
1504 1511 1508 1500 1493 1495 1501 1509 1504 1506 1506 1508 1511 1513 1515 1517 1518 1519 1520 1521 1522 1524 1525 1526 1527 1528 1528 1528 1529 1529 1529 1529 1530 1531 1532 1534 1535 1537 1538 1539 1540 1541 1542 1544 1545 1546 1548 1549 1550
1513 1511 1507 1503 1494 1495 1500 1503 1502 1504 1506 1508 1510 1512 1514 1515 1517 1518 1519 1521 1522 1524 1525 1526 1527 1528 1529 1530 1530 1530 1531 1531 1532 1533 1534 1535 1537 1538 1539 1540 1541 1542 1544 1545 1546 1547 1548 1549 1550
1498 1504 1506 1498 1491 1495 1499 1501 1501 1502 1505 1507 1508 1511 1512 1514 1516 1518 1519 1520 1522 1523 1524 1526 1527 1528 1529 1530 1530 1531 1532 1532 1534 1534 1536 1537 1538 1539 1540 1541 1542 1543 1544 1545 1547 1548 1549 1550 1550
1494 1502 1503 1495 1489 1495 1501 1502 1500 1500 1501 1502 1505 1508 1510 1513 1516 1517 1518 1519 1520 1522 1523 1525 1526 1528 1529 1530 1531 1532 1533 1534 1535 1536 1536 1538 1539 1540 1541 1542 1542 1544 1545 1546 1547 1548 1548 1549 1550
1493 1499 1499 1499 1494 1495 1503 1510 1505 1501 1502 1504 1505 1506 1507 1509 1512 1514 1516 1517 1519 1520 1522 1523 1525 1527 1529 1531 1532 1533 1534 1535 1535 1536 1537 1538 1539 1540 1541 1542 1543 1544 1545 1545 1546 1547 1548 1549 1550
1497 1487 1489 1493 1504 1514 1509 1528 1512 1505 1503 1503 1504 1506 1506 1508 1509 1511 1513 1515 1517 1518 1521 1522 1524 1527 1528 1530 1531 1532 1533 1534 1535 1536 1537 1538 1539 1540 1541 1542 1543 1544 1545 1545 1546 1547 1548 1548 1549
1486 1481 1485 1491 1502 1513 1513 1525 1518 1506 1507 1503 1501 1502 1503 1505 1506 1508 1510 1512 1514 1517 1519 1521 1524 1526 1528 1529 1531 1532 1533 1534 1536 1537 1538 1538 1539 1540 1541 1542 1542 1543 1544 1545 1546 1546 1547 1548 1548
1477 1484 1490 1498 1510 1527 1516 1523 1522 1507 1501 1498 1497 1498 1500 1501 1504 1506 1508 1511 1513 1516 1518 1520 1523 1525 1527 1528 1530 1531 1533 1534 1535 1536 1537 1538 1539 1539 1540 1541 1542 1542 1543 1544 1544 1545 1546 1547 1547
1480 1501 1522 1527 1535 1531 1512 1516 1514 1493 1489 1489 1491 1493 1497 1499 1501 1504 1507 1508 1511 1513 1516 1519 1521 1523 1525 1527 1529 1530 1532 1533 1534 1535 1536 1537 1538 1538 1539 1540 1540 1541 1542 1542 1543 1544 1544 1545 1545
1482 1495 1522 1535 1538 1529 1514 1516 1503 1487 1485 1486 1488 1491 1495 1499 1501 1502 1503 1504 1507 1510 1513 1516 1519 1521 1523 1525 1527 1529 1530 1532 1533 1534 1535 1536 1537 1538 1538 1539 1539 1540 1540 1541 1541 1542 1543 1543 1543
1482 1490 1492 1513 1522 1530 1523 1511 1497 1486 1486 1486 1489 1491 1494 1496 1498 1500 1502 1504 1506 1508 1511 1514 1517 1520 1522 1524 1525 1527 1529 1530 1531 1533 1534 1535 1536 1537 1537 1537 1538 1538 1539 1539 1540 1540 1540 1541 1541
1472 1480 1498 1513 1530 1536 1526 1518 1511 1495 1490 1488 1488 1489 1492 1494 1496 1499 1501 1502 1504 1507 1510 1513 1516 1518 1519 1522 1524 1525 1527 1528 1530 1531 1532 1533 1534 1535 1535 1536 1536 1537 1537 1537 1538 1538 1539 1539 1539
1478 1484 1495 1509 1513 1530 1536 1524 1492 1489 1486 1487 1486 1487 1490 1492 1494 1497 1499 1501 1503 1506 1509 1511 1514 1516 1518 1520 1522 1523 1525 1527 1528 1529 1530 1531 1532 1533 1533 1534 1534 1535 1535 1536 1536 1536 1536 1537 1537
1472 1480 1491 1508 1515 1517 1525 1519 1484 1484 1483 1484 1485 1486 1488 1490 1493 1496 1499 1501 1503 1505 1507 1509 1511 1513 1516 1518 1520 1521 1523 1524 1525 1526 1527 1529 1530 1530 1531 1532 1532 1533 1533 1534 1534 1534 1534 1534 1534